Regional Weather Roundup
Issued by NWS

Home | Current Version | Previous Version | Text Only | Print | Product List | Glossary On
Versions: 1 2 3 4 5 6 7 8 9 10 11 12 13 14 15 16 17 18 19 20 21 22 23 24 25 26 27 28
000
ASUS46 KSEW 250010
RWRWA

WASHINGTON REGIONAL WEATHER ROUNDUP
NATIONAL WEATHER SERVICE SEATTLE WA
500 PM PDT FRI OCT 24 2014

NOTE:"FAIR" INDICATES FEW OR NO CLOUDS BELOW 12,000 FEET WITH NO
SIGNIFICANT WEATHER AND/OR OBSTRUCTIONS TO VISIBILITY.

WAZ505-507>509-250100-
SEATTLE, TACOMA, EVERETT, AND VICINITY

CITY           SKY/WX    TMP DP  RH WIND       PRES   REMARKS
EVERETT        CLOUDY    53  46  77 N7        29.91F
6HR MIN TEMP:  53; 6HR MAX TEMP:  58;

BOEING FIELD   CLOUDY    59  47  64 N3        29.89F
6HR MIN TEMP:  55; 6HR MAX TEMP:  60;

RENTON         CLOUDY    57  49  74 N5        29.88F
6HR MIN TEMP:  52; 6HR MAX TEMP:  58;

SEATAC AIRPORT CLOUDY    56  46  69 N13       29.89F
6HR MIN TEMP:  53; 6HR MAX TEMP:  58;

JBLM-MCCHORD   CLOUDY    54  49  82 VRB2      29.88F
6HR MIN TEMP:  52; 6HR MAX TEMP:  56;

PUYALLUP       NOT AVBL
JBLM-FT LEWIS  CLOUDY    55  48  78 N6        29.87F
6HR MIN TEMP:  50; 6HR MAX TEMP:  55; 6HR PCP: TRACE;

TACOMA NARROWS CLOUDY    54  47  77 N13       29.88F
6HR MIN TEMP:  51; 6HR MAX TEMP:  54;

$$

WAZ001-503-506-510-514-515-250100-
NORTH INTERIOR

CITY           SKY/WX    TMP DP  RH WIND       PRES   REMARKS
BELLINGHAM     CLOUDY    53  43  68 N9        29.93F
6HR MIN TEMP:  51; 6HR MAX TEMP:  56;

FRIDAY HARBOR  CLOUDY    54  44  69 N5        29.94F
6HR MIN TEMP:  53; 6HR MAX TEMP:  56;

EASTSOUND      CLOUDY    54  45  71 CALM      29.93F
PORT ANGELES   CLOUDY    53  46  77 E3        29.93F
NAS WHIDBEY    CLOUDY    55  47  74 N5        29.93F
6HR MIN TEMP:  54; 6HR MAX TEMP:  60;

BURLINGTON     CLEAR    N/A N/A N/A NW5       29.94F
$$

WAZ020-022-039-040-504-511-512-250100-
SOUTHWEST INTERIOR

CITY           SKY/WX    TMP DP  RH WIND       PRES   REMARKS
SHELTON        CLOUDY    53  49  86 N3        29.86F
6HR MIN TEMP:  51; 6HR MAX TEMP:  55;

OLYMPIA        CLOUDY    53  50  89 N5        29.88F
6HR MIN TEMP:  49; 6HR MAX TEMP:  54;

CHEHALIS       FAIR      54  52  94 VRB3      29.86F
KELSO          CLOUDY    54  50  87 N3        29.87F
6HR MIN TEMP:  52; 6HR MAX TEMP:  55; 6HR PCP:  0.03;

VANCOUVER      LGT RAIN  55  51  86 CALM      29.84F FOG
6HR MIN TEMP:  53; 6HR MAX TEMP:  55; 6HR PCP:  0.08;

SCAPPOOSE, OR  LGT RAIN  55  51  86 N5        29.84F
6HR MIN TEMP:  54; 6HR MAX TEMP:  56; 6HR PCP:  0.06;

PORTLAND, OR   LGT RAIN  55  51  86 NE5       29.84F
6HR MIN TEMP:  54; 6HR MAX TEMP:  56; 6HR PCP:  0.08;

$$

WAZ021-516-517-250100-
WASHINGTON COAST

CITY           SKY/WX    TMP DP  RH WIND       PRES   REMARKS
FORKS          CLOUDY    52  46  80 NE9       29.86F HAZE
6HR MIN TEMP:  50; 6HR MAX TEMP:  57;

HOQUIAM        CLOUDY    55  48  77 NE9       29.85F
6HR MIN TEMP:  52; 6HR MAX TEMP:  55;

ASTORIA, OR    LGT RAIN  54  50  86 E9        29.81F
6HR MIN TEMP:  54; 6HR MAX TEMP:  57; 6HR PCP:  0.03;

$$

WAZ019-023-024-040-518-519-250100-
CASCADE MOUNTAINS AND COLUMBIA GORGE

CITY           SKY/WX    TMP DP  RH WIND       PRES   REMARKS
STAMPEDE PASS  NOT AVBL
TROUTDALE, OR  LGT RAIN  54  49  83 E20       29.82F
6HR MIN TEMP:  54; 6HR MAX TEMP:  57; 6HR PCP:  0.08;

THE DALLES, OR LGT RAIN  52  49  89 SW3       29.96F
6HR MIN TEMP:  51; 6HR MAX TEMP:  54; 6HR PCP:  0.15;

$$

WAZ026-027-041>044-520-521-250100-
EAST SLOPES

CITY           SKY/WX    TMP DP  RH WIND       PRES   REMARKS
OMAK           CLOUDY    52  38  58 CALM      30.05S
6HR MIN TEMP:  47; 6HR MAX TEMP:  54;

WENATCHEE      CLOUDY    53  39  59 SW5       30.01F
6HR MIN TEMP:  49; 6HR MAX TEMP:  53;

ELLENSBURG     CLOUDY    51  40  65 CALM      29.99F
6HR MIN TEMP:  48; 6HR MAX TEMP:  52;

YAKIMA         LGT RAIN  51  46  83 SW3       30.00F
6HR MIN TEMP:  49; 6HR MAX TEMP:  54; 6HR PCP:  0.01;

$$

WAZ028-034-035-250100-
COLUMBIA BASIN

CITY           SKY/WX    TMP DP  RH WIND       PRES   REMARKS
EPHRATA        CLOUDY    54  43  66 N7        30.00F
6HR MIN TEMP:  48; 6HR MAX TEMP:  55;

MOSES LAKE     CLOUDY    56  45  66 NE5       30.01F
6HR MIN TEMP:  50; 6HR MAX TEMP:  56;

PASCO          LGT RAIN  54  52  93 NW6       30.00F
6HR MIN TEMP:  54; 6HR MAX TEMP:  59; 6HR PCP:  0.01;

HERMISTON, OR  LGT RAIN  54  49  83 NE7       29.96F
6HR MIN TEMP:  53; 6HR MAX TEMP:  59; 6HR PCP:  0.03;

$$

WAZ036>038-250100-
NORTHEAST WASHINGTON

CITY           SKY/WX    TMP DP  RH WIND       PRES   REMARKS
SPOKANE GEIGER CLOUDY    52  43  71 NE8       30.04F
6HR MIN TEMP:  49; 6HR MAX TEMP:  54;

SPOKANE FELTS  CLOUDY    54  44  69 N3        30.04F
6HR MIN TEMP:  51; 6HR MAX TEMP:  57;

FAIRCHILD AFB  CLOUDY    51  43  75 NE9       30.04F
6HR MIN TEMP:  49; 6HR MAX TEMP:  53;

COEURDALENE,ID CLOUDY    54  41  62 NE9       30.04F
6HR MIN TEMP:  50; 6HR MAX TEMP:  55;

DEER PARK      CLOUDY    52  42  69 NE7       30.06F
6HR MIN TEMP:  48; 6HR MAX TEMP:  54;

$$

WAZ029>033-250100-
SOUTHEAST WASHINGTON

CITY           SKY/WX    TMP DP  RH WIND       PRES   REMARKS
PULLMAN        LGT RAIN  52  45  77 E12       30.04F
6HR MIN TEMP:  50; 6HR MAX TEMP:  54; 6HR PCP: TRACE;

LEWISTON, ID   LGT RAIN  55  50  83 NE6       30.00F
6HR MIN TEMP:  53; 6HR MAX TEMP:  58; 6HR PCP:  0.02;

WALLA WALLA    LGT RAIN  54  52  93 S5        29.97F FOG
6HR MIN TEMP:  54; 6HR MAX TEMP:  61; 6HR PCP:  0.02;

PENDLETON, OR  LGT RAIN  52  47  83 NE15      29.95F
6HR MIN TEMP:  52; 6HR MAX TEMP:  58; 6HR PCP:  0.01;

$$



USA.gov is the U.S. government's official web portal to all federal, state and local government web resources and services.